Terminal Aerodrome Forecast
Issued by NWS

Home | Current Version | Previous Version | Text Only | Print | Product List | Glossary On
Versions: 1 2 3 4 5 6 7 8 9 10 11 12 13 14 15 16 17 18 19 20 21
029
FTPA31 PHFO 072328
TAFHNY
TAF
PHNY 072328Z 0800/0824 01020G33KT P6SM SCT020 SCT045
     FM080600 04015G25KT P6SM SCT020 SCT040
     FM082000 04012G20KT P6SM SCT020 SCT040
      AMD NOT SKED=

USA.gov is the U.S. government's official web portal to all federal, state and local government web resources and services.